,,,PA_Meas_PMT16A,,PR_Meas_QMR101_102,,RH_Meas_QMH101,,SR_Meas_QMS101,,TA_Meas_QMH101,,GenWind,,GenWind,
date,time,status,PA,status,PR,status,RH,status,SR,status,TA,status,DirAvg,status,SpdAvg,
2012-01-13, 00:00:05,VALID,1003.68,VALID,0,VALID,87.694,VALID,0,VALID,25.5493,VALID,291,VALID,0.173438,
2012-01-13, 00:01:05,VALID,1003.65,VALID,0,VALID,87.5643,VALID,0.0815089,VALID,25.5902,VALID,284,VALID,0.776172,
2012-01-13, 00:02:05,VALID,1003.66,VALID,0,VALID,87.3583,VALID,0.0815089,VALID,25.6097,VALID,301,VALID,0.965625,
2012-01-13, 00:03:05,VALID,1003.63,VALID,0,VALID,87.2744,VALID,0.0815089,VALID,25.6097,VALID,292,VALID,0.55625,
2012-01-13, 00:04:05,VALID,1003.62,VALID,0,VALID,87.2439,VALID,0.0815089,VALID,25.6272,VALID,263,VALID,0.642187,
2012-01-13, 00:05:05,VALID,1003.59,VALID,0,VALID,87.2744,VALID,0,VALID,25.6486,VALID,257,VALID,0.64375,
2012-01-13, 00:06:05,VALID,1003.58,VALID,0,VALID,87.343,VALID,0.0815089,VALID,25.6681,VALID,241,VALID,0.25,
2012-01-13, 00:07:05,VALID,1003.55,VALID,0,VALID,87.3049,VALID,0,VALID,25.6486,VALID,253,VALID,0.426172,
2012-01-13, 00:08:05,VALID,1003.53,VALID,0,VALID,87.2362,VALID,0.0815089,VALID,25.6292,VALID,350,VALID,0.330469,
2012-01-13, 00:09:05,VALID,1003.53,VALID,0,VALID,87.3125,VALID,0,VALID,25.6097,VALID,355,VALID,0.233203,
2012-01-13, 00:10:05,VALID,1003.52,VALID,0,VALID,87.4346,VALID,0,VALID,25.6097,VALID,318,VALID,0.391406,
2012-01-13, 00:11:05,VALID,1003.5,VALID,0,VALID,87.4117,VALID,0,VALID,25.6097,VALID,346,VALID,0.262109,
2012-01-13, 00:12:05,VALID,1003.48,VALID,0,VALID,87.427,VALID,0,VALID,25.6097,VALID,346,VALID,0.345703,
2012-01-13, 00:13:05,VALID,1003.46,VALID,0,VALID,87.4117,VALID,0.0815089,VALID,25.5902,VALID,345,VALID,0.391016,
2012-01-13, 00:14:05,VALID,1003.43,VALID,0,VALID,87.488,VALID,0.0815089,VALID,25.5902,VALID,345,VALID,0.489453,
2012-01-13, 00:15:05,VALID,1003.41,VALID,0,VALID,87.6024,VALID,0,VALID,25.5513,VALID,345,VALID,0.225781,
2012-01-13, 00:16:05,VALID,1003.4,VALID,0,VALID,87.6711,VALID,0.0815089,VALID,25.5298,VALID,338,VALID,0.366406,
2012-01-13, 00:17:05,VALID,1003.39,VALID,0,VALID,87.7626,VALID,0,VALID,25.5104,VALID,338,VALID,0.1375,
2012-01-13, 00:18:05,VALID,1003.35,VALID,0,VALID,87.8847,VALID,0,VALID,25.5123,VALID,328,VALID,0.0339844,
2012-01-13, 00:19:05,VALID,1003.38,VALID,0,VALID,87.9686,VALID,0,VALID,25.5123,VALID,285,VALID,0,
2012-01-13, 00:20:05,VALID,1003.38,VALID,0,VALID,87.9457,VALID,0,VALID,25.4734,VALID,285,VALID,0.371094,
2012-01-13, 00:21:05,VALID,1003.31,VALID,0,VALID,88.1365,VALID,0.0815089,VALID,25.4734,VALID,339,VALID,0.40625,
2012-01-13, 00:22:05,VALID,1003.3,VALID,0,VALID,88.0373,VALID,0.0815089,VALID,25.4325,VALID,339,VALID,0.579297,
2012-01-13, 00:23:05,VALID,1003.26,VALID,0,VALID,88.0907,VALID,0,VALID,25.4344,VALID,342,VALID,0.617188,
2012-01-13, 00:24:05,VALID,1003.23,VALID,0,VALID,88.2967,VALID,0,VALID,25.4149,VALID,343,VALID,0.335938,
2012-01-13, 00:25:05,VALID,1003.17,VALID,0,VALID,88.3882,VALID,0.0815089,VALID,25.376,VALID,343,VALID,0.139062,
2012-01-13, 00:26:05,VALID,1003.1,VALID,0,VALID,88.289,VALID,0,VALID,25.3565,VALID,320,VALID,0.573047,
2012-01-13, 00:27:05,VALID,1003.04,VALID,0,VALID,88.3958,VALID,0,VALID,25.3546,VALID,303,VALID,0.578516,
2012-01-13, 00:28:05,VALID,1003.04,VALID,0,VALID,88.289,VALID,0,VALID,25.376,VALID,296,VALID,0.403906,
2012-01-13, 00:29:05,VALID,1002.99,VALID,0,VALID,87.8923,VALID,0,VALID,25.3955,VALID,336,VALID,0.578906,
2012-01-13, 00:30:05,VALID,1002.97,VALID,0,VALID,87.6635,VALID,0,VALID,25.3955,VALID,333,VALID,0.687109,
2012-01-13, 00:31:05,VALID,1003,VALID,0,VALID,87.2591,VALID,0,VALID,25.376,VALID,277,VALID,0.852734,
2012-01-13, 00:32:05,VALID,1002.98,VALID,0,VALID,87.015,VALID,0.0815089,VALID,25.4149,VALID,310,VALID,0.338672,
2012-01-13, 00:33:05,VALID,1002.95,VALID,0,VALID,85.947,VALID,0,VALID,25.4149,VALID,355,VALID,1.58047,
2012-01-13, 00:34:05,VALID,1002.98,VALID,0,VALID,85.9622,VALID,0,VALID,25.4539,VALID,270,VALID,0.580859,
2012-01-13, 00:35:05,VALID,1002.98,VALID,0,VALID,85.8707,VALID,0.0815089,VALID,25.4928,VALID,296,VALID,0.444141,
2012-01-13, 00:36:05,VALID,1003,VALID,0,VALID,85.596,VALID,0.0815089,VALID,25.5123,VALID,294,VALID,0.773828,
2012-01-13, 00:37:05,VALID,1003.02,VALID,0,VALID,85.2299,VALID,0.0815089,VALID,25.5104,VALID,343,VALID,0.789063,
2012-01-13, 00:38:05,VALID,1003.01,VALID,0,VALID,85.2299,VALID,0,VALID,25.5513,VALID,262,VALID,0.471094,
2012-01-13, 00:39:05,VALID,1003.03,VALID,0,VALID,85.3595,VALID,0.0815089,VALID,25.5513,VALID,244,VALID,0.512891,
2012-01-13, 00:40:05,VALID,1003.02,VALID,0,VALID,84.8637,VALID,0,VALID,25.5532,VALID,288,VALID,0.932031,
2012-01-13, 00:41:05,VALID,1003.01,VALID,0,VALID,84.8255,VALID,0.0815089,VALID,25.5104,VALID,302,VALID,0.558984,
2012-01-13, 00:42:05,VALID,1003,VALID,0,VALID,84.8713,VALID,0,VALID,25.5513,VALID,57,VALID,0.601172,
2012-01-13, 00:43:05,VALID,1002.95,VALID,0,VALID,84.7263,VALID,0,VALID,25.5513,VALID,336,VALID,0.605859,
2012-01-13, 00:44:05,VALID,1002.95,VALID,0,VALID,84.7416,VALID,0,VALID,25.5532,VALID,274,VALID,0.555859,
2012-01-13, 00:45:05,VALID,1002.9,VALID,0,VALID,84.7035,VALID,0,VALID,25.5123,VALID,278,VALID,0.851172,
2012-01-13, 00:46:05,VALID,1002.93,VALID,0,VALID,84.4975,VALID,0,VALID,25.5318,VALID,341,VALID,0.937109,
2012-01-13, 00:47:05,VALID,1002.93,VALID,0,VALID,84.7035,VALID,0.0815089,VALID,25.5318,VALID,344,VALID,0.313281,
2012-01-13, 00:48:05,VALID,1002.92,VALID,0,VALID,84.8103,VALID,0.0815089,VALID,25.5318,VALID,344,VALID,0.655078,
2012-01-13, 00:49:05,VALID,1002.92,VALID,0,VALID,84.8789,VALID,0,VALID,25.5123,VALID,344,VALID,0.288281,
2012-01-13, 00:50:05,VALID,1002.96,VALID,0,VALID,84.9476,VALID,0,VALID,25.4734,VALID,338,VALID,0.673047,
2012-01-13, 00:51:05,VALID,1002.99,VALID,0,VALID,85.207,VALID,0,VALID,25.4948,VALID,317,VALID,0.620313,
2012-01-13, 00:52:05,VALID,1002.97,VALID,0,VALID,85.1307,VALID,0,VALID,25.4539,VALID,282,VALID,0.357422,
2012-01-13, 00:53:05,VALID,1003,VALID,0,VALID,85.1002,VALID,0,VALID,25.4344,VALID,301,VALID,0.495703,
2012-01-13, 00:54:05,VALID,1002.99,VALID,0,VALID,85.2909,VALID,0,VALID,25.4149,VALID,332,VALID,0.604297,
2012-01-13, 00:55:05,VALID,1002.95,VALID,0,VALID,85.2451,VALID,0,VALID,25.3955,VALID,346,VALID,0.81875,
2012-01-13, 00:56:05,VALID,1002.95,VALID,0,VALID,85.3214,VALID,0,VALID,25.3955,VALID,292,VALID,0.557031,
2012-01-13, 00:57:05,VALID,1002.89,VALID,0,VALID,85.4892,VALID,0.0815089,VALID,25.3955,VALID,343,VALID,0.411328,
2012-01-13, 00:58:05,VALID,1002.86,VALID,0,VALID,85.6494,VALID,0,VALID,25.376,VALID,291,VALID,0.496875,
2012-01-13, 00:59:05,VALID,1002.83,VALID,0,VALID,85.5808,VALID,0,VALID,25.376,VALID,294,VALID,0.869922,
2012-01-13, 01:00:05,VALID,1002.79,VALID,0,VALID,85.5732,VALID,0,VALID,25.376,VALID,279,VALID,0.928125,
2012-01-13, 01:01:05,VALID,1002.72,VALID,0,VALID,85.5198,VALID,0,VALID,25.3351,VALID,288,VALID,1.42695,
2012-01-13, 01:02:05,VALID,1002.71,VALID,0,VALID,85.6189,VALID,0,VALID,25.376,VALID,297,VALID,1.04883,
2012-01-13, 01:03:05,VALID,1002.67,VALID,0,VALID,85.8859,VALID,0,VALID,25.3565,VALID,303,VALID,1.27734,
2012-01-13, 01:04:05,VALID,1002.66,VALID,0,VALID,85.802,VALID,0,VALID,25.337,VALID,338,VALID,0.645703,
2012-01-13, 01:05:05,VALID,1002.63,VALID,0,VALID,85.6494,VALID,0,VALID,25.339,VALID,342,VALID,0.925781,
2012-01-13, 01:06:05,VALID,1002.61,VALID,0,VALID,85.5655,VALID,0,VALID,25.3176,VALID,336,VALID,1.03047,
2012-01-13, 01:07:05,VALID,1002.58,VALID,0,VALID,84.8637,VALID,0,VALID,25.2981,VALID,360,VALID,1.82773,
2012-01-13, 01:08:05,VALID,1002.53,VALID,0,VALID,84.4975,VALID,0,VALID,25.337,VALID,352,VALID,1.78125,
2012-01-13, 01:09:05,VALID,1002.49,VALID,0,VALID,84.0245,VALID,0,VALID,25.3565,VALID,353,VALID,2.54727,
2012-01-13, 01:10:05,VALID,1002.46,VALID,0,VALID,83.8795,VALID,0,VALID,25.4169,VALID,4,VALID,1.89297,
2012-01-13, 01:11:05,VALID,1002.48,VALID,0,VALID,83.7498,VALID,0,VALID,25.3955,VALID,351,VALID,2.16094,
2012-01-13, 01:12:05,VALID,1002.45,VALID,0,VALID,83.6354,VALID,0,VALID,25.3974,VALID,349,VALID,2.79492,
2012-01-13, 01:13:05,VALID,1002.45,VALID,0,VALID,83.5591,VALID,0,VALID,25.3974,VALID,345,VALID,1.57734,
2012-01-13, 01:14:05,VALID,1002.44,VALID,0,VALID,83.6583,VALID,0,VALID,25.3565,VALID,356,VALID,2.22031,
2012-01-13, 01:15:05,VALID,1002.4,VALID,0,VALID,83.4828,VALID,0.0815089,VALID,25.3565,VALID,35,VALID,1.19141,
2012-01-13, 01:16:05,VALID,1002.35,VALID,0,VALID,83.2616,VALID,0.0815089,VALID,25.3351,VALID,346,VALID,2.09258,
2012-01-13, 01:17:05,VALID,1002.34,VALID,0,VALID,83.5896,VALID,0.0815089,VALID,25.3157,VALID,351,VALID,1.61484,
2012-01-13, 01:18:05,VALID,1002.3,VALID,0,VALID,83.7346,VALID,0,VALID,25.2981,VALID,335,VALID,1.60781,
2012-01-13, 01:19:05,VALID,1002.28,VALID,0,VALID,83.7804,VALID,0,VALID,25.2981,VALID,349,VALID,1.26211,
2012-01-13, 01:20:05,VALID,1002.3,VALID,0,VALID,83.8872,VALID,0.0815089,VALID,25.2786,VALID,299,VALID,1.40469,
2012-01-13, 01:21:05,VALID,1002.29,VALID,0,VALID,83.7575,VALID,0.0815089,VALID,25.2397,VALID,355,VALID,2.00508,
2012-01-13, 01:22:05,VALID,1002.31,VALID,0,VALID,83.7727,VALID,0.0815089,VALID,25.2397,VALID,349,VALID,2.0375,
2012-01-13, 01:23:05,VALID,1002.31,VALID,0,VALID,83.7575,VALID,0,VALID,25.2397,VALID,349,VALID,1.91953,
2012-01-13, 01:24:05,VALID,1002.35,VALID,0,VALID,84.0397,VALID,0,VALID,25.2397,VALID,346,VALID,1.14297,
2012-01-13, 01:25:05,VALID,1002.36,VALID,0,VALID,84.1237,VALID,0,VALID,25.2007,VALID,6,VALID,1.82656,
2012-01-13, 01:26:05,VALID,1002.37,VALID,0,VALID,83.994,VALID,0,VALID,25.2007,VALID,347,VALID,1.78516,
2012-01-13, 01:27:05,VALID,1002.35,VALID,0,VALID,84.0931,VALID,0.0815089,VALID,25.2007,VALID,336,VALID,0.945703,
2012-01-13, 01:28:05,VALID,1002.36,VALID,0,VALID,83.9635,VALID,0.0815089,VALID,25.1988,VALID,348,VALID,1.76875,
2012-01-13, 01:29:05,VALID,1002.34,VALID,0,VALID,84.1008,VALID,0.0815089,VALID,25.2202,VALID,352,VALID,1.02695,
2012-01-13, 01:30:05,VALID,1002.32,VALID,0,VALID,84.1237,VALID,0,VALID,25.2007,VALID,334,VALID,0.591016,
2012-01-13, 01:31:05,VALID,1002.25,VALID,0,VALID,84.2457,VALID,0.0815089,VALID,25.1813,VALID,334,VALID,1.07813,
2012-01-13, 01:32:05,VALID,1002.22,VALID,0,VALID,84.1923,VALID,0.0815089,VALID,25.2202,VALID,347,VALID,1.2,
2012-01-13, 01:33:05,VALID,1002.18,VALID,0,VALID,84.2991,VALID,0,VALID,25.2007,VALID,342,VALID,1.31094,
2012-01-13, 01:34:05,VALID,1002.13,VALID,0,VALID,84.2152,VALID,0.0815089,VALID,25.1404,VALID,345,VALID,1.84687,
2012-01-13, 01:35:05,VALID,1002.08,VALID,0,VALID,84.3373,VALID,0,VALID,25.1832,VALID,351,VALID,1.21523,
2012-01-13, 01:36:05,VALID,1002.03,VALID,0,VALID,84.4288,VALID,0,VALID,25.1618,VALID,332,VALID,1.17461,
2012-01-13, 01:37:05,VALID,1001.99,VALID,0,VALID,84.4288,VALID,0.0815089,VALID,25.1618,VALID,346,VALID,2.07773,
2012-01-13, 01:38:05,VALID,1001.95,VALID,0,VALID,84.3449,VALID,0,VALID,25.1618,VALID,346,VALID,1.48555,
2012-01-13, 01:39:05,VALID,1001.96,VALID,0,VALID,84.3754,VALID,0,VALID,25.1618,VALID,350,VALID,1.80781,
2012-01-13, 01:40:05,VALID,1001.93,VALID,0,VALID,84.3144,VALID,0,VALID,25.1813,VALID,344,VALID,1.4,
2012-01-13, 01:41:05,VALID,1001.95,VALID,0,VALID,84.3525,VALID,0.0815089,VALID,25.1599,VALID,353,VALID,1.63242,
2012-01-13, 01:42:05,VALID,1001.91,VALID,0,VALID,84.4441,VALID,0,VALID,25.1404,VALID,349,VALID,1.6418,
2012-01-13, 01:43:04,VALID,1001.9,VALID,0,VALID,84.589,VALID,0.0815089,VALID,25.1423,VALID,356,VALID,0.867188,
2012-01-13, 01:44:04,VALID,1001.9,VALID,0,VALID,84.5509,VALID,0.0815089,VALID,25.121,VALID,354,VALID,1.39805,
2012-01-13, 01:45:04,VALID,1001.9,VALID,0,VALID,84.6882,VALID,0.0815089,VALID,25.121,VALID,343,VALID,1.225,
2012-01-13, 01:46:04,VALID,1001.9,VALID,0,VALID,84.7111,VALID,0.0815089,VALID,25.1423,VALID,347,VALID,1.36133,
2012-01-13, 01:47:04,VALID,1001.88,VALID,0,VALID,84.7416,VALID,0.0815089,VALID,25.1229,VALID,358,VALID,1.90625,
2012-01-13, 01:48:04,VALID,1001.93,VALID,0,VALID,84.8255,VALID,0,VALID,25.1229,VALID,350,VALID,1.7793,
2012-01-13, 01:49:04,VALID,1001.93,VALID,0,VALID,84.7721,VALID,0.0815089,VALID,25.1404,VALID,352,VALID,1.89453,
2012-01-13, 01:50:04,VALID,1001.93,VALID,0,VALID,84.8103,VALID,0.0815089,VALID,25.1813,VALID,10,VALID,2.61367,
2012-01-13, 01:51:04,VALID,1001.96,VALID,0,VALID,84.7874,VALID,0,VALID,25.2027,VALID,354,VALID,1.36641,
2012-01-13, 01:52:04,VALID,1001.96,VALID,0,VALID,84.795,VALID,0,VALID,25.1813,VALID,353,VALID,1.99453,
2012-01-13, 01:53:04,VALID,1001.95,VALID,0,VALID,85.0391,VALID,0.0815089,VALID,25.2007,VALID,31,VALID,1.38555,
2012-01-13, 01:54:04,VALID,1001.96,VALID,0,VALID,85.0544,VALID,0,VALID,25.1813,VALID,13,VALID,2.30156,
2012-01-13, 01:55:04,VALID,1001.92,VALID,0,VALID,85.1536,VALID,0,VALID,25.1813,VALID,360,VALID,1.77031,
2012-01-13, 01:56:04,VALID,1001.9,VALID,0,VALID,85.2375,VALID,0.0815089,VALID,25.1618,VALID,348,VALID,1.84375,
2012-01-13, 01:57:04,VALID,1001.93,VALID,0,VALID,85.3977,VALID,0.0815089,VALID,25.1618,VALID,15,VALID,1.89688,
2012-01-13, 01:58:04,VALID,1001.93,VALID,0,VALID,85.2756,VALID,0.0815089,VALID,25.121,VALID,360,VALID,2.71914,
2012-01-13, 01:59:04,VALID,1001.91,VALID,0,VALID,85.3824,VALID,0,VALID,25.1618,VALID,9,VALID,1.52422,
2012-01-13, 02:00:04,VALID,1001.96,VALID,0,VALID,85.4435,VALID,0.0815089,VALID,25.1813,VALID,350,VALID,1.56211,
2012-01-13, 02:01:04,VALID,1001.94,VALID,0,VALID,85.4511,VALID,0,VALID,25.1813,VALID,5,VALID,1.63086,
2012-01-13, 02:02:04,VALID,1001.9,VALID,0,VALID,85.3061,VALID,0.0815089,VALID,25.1599,VALID,356,VALID,1.18984,
2012-01-13, 02:03:04,VALID,1001.92,VALID,0,VALID,85.3595,VALID,0,VALID,25.1813,VALID,23,VALID,1.88164,
2012-01-13, 02:04:04,VALID,1001.9,VALID,0,VALID,85.3214,VALID,0.0815089,VALID,25.1813,VALID,14,VALID,1.49766,
2012-01-13, 02:05:04,VALID,1001.88,VALID,0,VALID,85.1688,VALID,0.0815089,VALID,25.1813,VALID,6,VALID,2.55977,
2012-01-13, 02:06:04,VALID,1001.85,VALID,0,VALID,85.1688,VALID,0.0815089,VALID,25.1813,VALID,349,VALID,1.38164,
2012-01-13, 02:07:04,VALID,1001.89,VALID,0,VALID,85.1536,VALID,0,VALID,25.2202,VALID,11,VALID,1.64063,
2012-01-13, 02:08:04,VALID,1001.86,VALID,0,VALID,84.9705,VALID,0,VALID,25.2202,VALID,349,VALID,1.53828,
2012-01-13, 02:09:04,VALID,1001.84,VALID,0,VALID,85.1002,VALID,0.0815089,VALID,25.2007,VALID,350,VALID,1.48633,
2012-01-13, 02:10:04,VALID,1001.84,VALID,0,VALID,84.589,VALID,0.0815089,VALID,25.2202,VALID,357,VALID,1.6582,
2012-01-13, 02:11:04,VALID,1001.86,VALID,0,VALID,84.3525,VALID,0.0815089,VALID,25.2592,VALID,6,VALID,1.46602,
2012-01-13, 02:12:04,VALID,1001.87,VALID,0,VALID,84.1313,VALID,0,VALID,25.3176,VALID,354,VALID,1.16211,
2012-01-13, 02:13:04,VALID,1001.91,VALID,0,VALID,83.9787,VALID,0.0815089,VALID,25.3157,VALID,2,VALID,1.41836,
2012-01-13, 02:14:04,VALID,1001.89,VALID,0,VALID,83.9253,VALID,0,VALID,25.3565,VALID,325,VALID,0.623438,
2012-01-13, 02:15:04,VALID,1001.9,VALID,0,VALID,83.5591,VALID,0,VALID,25.3955,VALID,359,VALID,1.6375,
2012-01-13, 02:16:04,VALID,1001.89,VALID,0,VALID,83.3531,VALID,0.0815089,VALID,25.4149,VALID,336,VALID,1.76406,
2012-01-13, 02:17:04,VALID,1001.93,VALID,0,VALID,83.2769,VALID,0,VALID,25.4344,VALID,342,VALID,1.0082,
2012-01-13, 02:18:04,VALID,1001.92,VALID,0,VALID,83.048,VALID,0.0815089,VALID,25.4734,VALID,345,VALID,1.30742,
2012-01-13, 02:19:04,VALID,1001.92,VALID,0,VALID,83.2921,VALID,0,VALID,25.4734,VALID,274,VALID,0.410547,
2012-01-13, 02:20:04,VALID,1001.93,VALID,0,VALID,83.1701,VALID,0.0815089,VALID,25.4928,VALID,281,VALID,0.720703,
2012-01-13, 02:21:04,VALID,1001.99,VALID,0,VALID,83.109,VALID,0,VALID,25.4928,VALID,351,VALID,1.29062,
2012-01-13, 02:22:04,VALID,1001.99,VALID,0,VALID,82.9717,VALID,0.0815089,VALID,25.5123,VALID,293,VALID,0.723828,
2012-01-13, 02:23:04,VALID,1002.02,VALID,0,VALID,83.0098,VALID,0.0815089,VALID,25.5104,VALID,304,VALID,0.455859,
2012-01-13, 02:24:04,VALID,1002.01,VALID,0,VALID,83.2692,VALID,0,VALID,25.5318,VALID,299,VALID,0.308984,
2012-01-13, 02:25:04,VALID,1002.02,VALID,0,VALID,83.1777,VALID,0.0815089,VALID,25.5123,VALID,298,VALID,0.986328,
2012-01-13, 02:26:04,VALID,1002.01,VALID,0,VALID,83.5362,VALID,0.0815089,VALID,25.5123,VALID,256,VALID,0.546094,
2012-01-13, 02:27:04,VALID,1002.03,VALID,0,VALID,83.7041,VALID,0.0815089,VALID,25.4928,VALID,216,VALID,0.437109,
2012-01-13, 02:28:04,VALID,1002.03,VALID,0,VALID,83.6659,VALID,0,VALID,25.4928,VALID,280,VALID,0.702734,
2012-01-13, 02:29:04,VALID,1002.01,VALID,0,VALID,84.0245,VALID,0,VALID,25.4539,VALID,285,VALID,0.225,
2012-01-13, 02:30:04,VALID,1002.02,VALID,0,VALID,83.9329,VALID,0,VALID,25.4344,VALID,282,VALID,1.11211,
2012-01-13, 02:31:04,VALID,1002.07,VALID,0,VALID,84.2457,VALID,0.0815089,VALID,25.4149,VALID,272,VALID,0.6875,
2012-01-13, 02:32:04,VALID,1002.06,VALID,0,VALID,84.4593,VALID,0.0815089,VALID,25.4149,VALID,275,VALID,0.464063,
2012-01-13, 02:33:04,VALID,1002.07,VALID,0,VALID,84.6348,VALID,0,VALID,25.3955,VALID,267,VALID,0.10625,
2012-01-13, 02:34:04,VALID,1002.11,VALID,0,VALID,84.8789,VALID,0,VALID,25.3955,VALID,258,VALID,0.344141,
2012-01-13, 02:35:04,VALID,1002.09,VALID,0,VALID,84.9018,VALID,0.0815089,VALID,25.376,VALID,261,VALID,0.361719,
2012-01-13, 02:36:04,VALID,1002.09,VALID,0,VALID,84.5814,VALID,0,VALID,25.337,VALID,297,VALID,0.811328,
2012-01-13, 02:37:04,VALID,1002.08,VALID,0,VALID,84.734,VALID,0.0815089,VALID,25.3176,VALID,287,VALID,0.941797,
2012-01-13, 02:38:04,VALID,1002.09,VALID,0,VALID,84.7416,VALID,0,VALID,25.3176,VALID,316,VALID,0.480469,
2012-01-13, 02:39:04,VALID,1002.04,VALID,0,VALID,84.8332,VALID,0.0815089,VALID,25.2962,VALID,327,VALID,0.546094,
2012-01-13, 02:40:04,VALID,1002.08,VALID,0,VALID,84.7721,VALID,0.0815089,VALID,25.2962,VALID,348,VALID,0.697266,
2012-01-13, 02:41:04,VALID,1002.09,VALID,0,VALID,84.9781,VALID,0,VALID,25.2786,VALID,351,VALID,0.854297,
2012-01-13, 02:42:04,VALID,1002.13,VALID,0,VALID,85.2299,VALID,0,VALID,25.2592,VALID,8,VALID,0.774609,
2012-01-13, 02:43:04,VALID,1002.15,VALID,0,VALID,85.4129,VALID,0.0815089,VALID,25.2397,VALID,10,VALID,0.635156,
2012-01-13, 02:44:04,VALID,1002.16,VALID,0,VALID,85.207,VALID,0,VALID,25.2007,VALID,350,VALID,0.907422,
2012-01-13, 02:45:04,VALID,1002.22,VALID,0,VALID,85.5045,VALID,0,VALID,25.2007,VALID,343,VALID,0.698828,
2012-01-13, 02:46:04,VALID,1002.24,VALID,0,VALID,85.6418,VALID,0,VALID,25.1813,VALID,345,VALID,0.663672,
2012-01-13, 02:47:04,VALID,1002.26,VALID,0,VALID,85.7791,VALID,0,VALID,25.1618,VALID,355,VALID,0.757031,
2012-01-13, 02:48:04,VALID,1002.28,VALID,0,VALID,85.7562,VALID,0.0815089,VALID,25.1618,VALID,348,VALID,0.303516,
2012-01-13, 02:49:04,VALID,1002.32,VALID,0,VALID,85.7562,VALID,0,VALID,25.1618,VALID,351,VALID,0.261328,
2012-01-13, 02:50:04,VALID,1002.31,VALID,0,VALID,85.3443,VALID,0.0815089,VALID,25.1813,VALID,349,VALID,0.892969,
2012-01-13, 02:51:04,VALID,1002.28,VALID,0,VALID,84.8789,VALID,0.0815089,VALID,25.2007,VALID,353,VALID,0.904688,
2012-01-13, 02:52:04,VALID,1002.27,VALID,0,VALID,84.5967,VALID,0.0815089,VALID,25.2397,VALID,346,VALID,0.841016,
2012-01-13, 02:53:04,VALID,1002.21,VALID,0,VALID,85.0162,VALID,0.0815089,VALID,25.2786,VALID,349,VALID,0.692578,
2012-01-13, 02:54:04,VALID,1002.21,VALID,0,VALID,84.795,VALID,0.0815089,VALID,25.2592,VALID,347,VALID,1.02969,
2012-01-13, 02:55:04,VALID,1002.21,VALID,0,VALID,85.0239,VALID,0,VALID,25.2397,VALID,351,VALID,0.809375,
2012-01-13, 02:56:04,VALID,1002.18,VALID,0,VALID,85.2299,VALID,0,VALID,25.2202,VALID,354,VALID,0.789453,
2012-01-13, 02:57:04,VALID,1002.14,VALID,0,VALID,85.3672,VALID,0,VALID,25.2007,VALID,348,VALID,0.726953,
2012-01-13, 02:58:04,VALID,1002.13,VALID,0,VALID,85.5198,VALID,0.0815089,VALID,25.2007,VALID,349,VALID,0.919922,
2012-01-13, 02:59:04,VALID,1002.12,VALID,0,VALID,85.5045,VALID,0,VALID,25.1423,VALID,351,VALID,0.888672,
2012-01-13, 03:00:04,VALID,1002.12,VALID,0,VALID,85.7868,VALID,0,VALID,25.1442,VALID,345,VALID,0.502734,
2012-01-13, 03:01:04,VALID,1002.09,VALID,0,VALID,85.9927,VALID,0,VALID,25.1034,VALID,347,VALID,0.8125,
2012-01-13, 03:02:04,VALID,1002.09,VALID,0,VALID,85.9393,VALID,0,VALID,25.0839,VALID,347,VALID,0.708594,
2012-01-13, 03:03:04,VALID,1002.08,VALID,0,VALID,86.069,VALID,0,VALID,25.0431,VALID,346,VALID,0.366797,
2012-01-13, 03:04:04,VALID,1002.08,VALID,0,VALID,86.214,VALID,0,VALID,25.045,VALID,14,VALID,0.392578,
2012-01-13, 03:05:04,VALID,1002.05,VALID,0,VALID,86.1682,VALID,0.0815089,VALID,25.0255,VALID,17,VALID,0.510938,
2012-01-13, 03:06:04,VALID,1002.1,VALID,0,VALID,86.0385,VALID,0.0815089,VALID,25.0255,VALID,26,VALID,0.776172,
2012-01-13, 03:07:04,VALID,1002.08,VALID,0,VALID,85.7944,VALID,0,VALID,25.045,VALID,13,VALID,0.560156,
2012-01-13, 03:08:04,VALID,1002.07,VALID,0,VALID,85.6952,VALID,0,VALID,25.0431,VALID,6,VALID,0.964844,
2012-01-13, 03:09:04,VALID,1002.08,VALID,0,VALID,85.5426,VALID,0.0815089,VALID,25.0644,VALID,359,VALID,0.990625,
2012-01-13, 03:10:04,VALID,1002.09,VALID,0,VALID,85.1078,VALID,0,VALID,25.1053,VALID,351,VALID,1.33398,
2012-01-13, 03:11:04,VALID,1002.08,VALID,0,VALID,85.1765,VALID,0.0815089,VALID,25.082,VALID,301,VALID,0.814844,
2012-01-13, 03:12:04,VALID,1002.06,VALID,0,VALID,85.1688,VALID,0.0815089,VALID,25.1423,VALID,351,VALID,0.658984,
2012-01-13, 03:13:04,VALID,1002.09,VALID,0,VALID,85.1993,VALID,0,VALID,25.1637,VALID,350,VALID,0.282031,
2012-01-13, 03:14:04,VALID,1002.05,VALID,0,VALID,84.8026,VALID,0,VALID,25.1618,VALID,351,VALID,0.275781,
2012-01-13, 03:15:04,VALID,1002.04,VALID,0,VALID,84.8103,VALID,0,VALID,25.1832,VALID,351,VALID,0.101172,
2012-01-13, 03:16:04,VALID,1002.04,VALID,0,VALID,84.6348,VALID,0,VALID,25.1813,VALID,350,VALID,0.565234,
2012-01-13, 03:17:04,VALID,1002.05,VALID,0,VALID,84.4517,VALID,0,VALID,25.1794,VALID,350,VALID,0.117969,
2012-01-13, 03:18:04,VALID,1002.08,VALID,0,VALID,84.383,VALID,0,VALID,25.2202,VALID,350,VALID,0.0101562,
2012-01-13, 03:19:04,VALID,1002.08,VALID,0,VALID,84.528,VALID,0.0815089,VALID,25.2397,VALID,350,VALID,0.329297,
2012-01-13, 03:20:04,VALID,1002.05,VALID,0,VALID,84.261,VALID,0.0815089,VALID,25.2397,VALID,332,VALID,0.556641,
2012-01-13, 03:21:04,VALID,1002.04,VALID,0,VALID,84.3754,VALID,0.0815089,VALID,25.2183,VALID,350,VALID,0.236719,
2012-01-13, 03:22:04,VALID,1002.05,VALID,0,VALID,84.2,VALID,0,VALID,25.2397,VALID,351,VALID,0.922656,
2012-01-13, 03:23:04,VALID,1001.99,VALID,0,VALID,83.9711,VALID,0.0815089,VALID,25.2397,VALID,334,VALID,0.570313,
2012-01-13, 03:24:04,VALID,1002,VALID,0,VALID,83.8414,VALID,0,VALID,25.2397,VALID,343,VALID,0.782812,
2012-01-13, 03:25:04,VALID,1001.98,VALID,0,VALID,83.8414,VALID,0,VALID,25.2592,VALID,342,VALID,0.841406,
2012-01-13, 03:26:04,VALID,1002.02,VALID,0,VALID,84.0321,VALID,0,VALID,25.2592,VALID,342,VALID,0.209766,
2012-01-13, 03:27:04,VALID,1002.02,VALID,0,VALID,84.2686,VALID,0,VALID,25.2611,VALID,342,VALID,0.244922,
2012-01-13, 03:28:04,VALID,1002.01,VALID,0,VALID,84.1466,VALID,0.0815089,VALID,25.2202,VALID,342,VALID,0.790234,
2012-01-13, 03:29:04,VALID,1002.01,VALID,0,VALID,84.4364,VALID,0,VALID,25.2202,VALID,342,VALID,0.415625,
2012-01-13, 03:30:04,VALID,1002.03,VALID,0,VALID,84.4288,VALID,0,VALID,25.2007,VALID,342,VALID,0.343359,
2012-01-13, 03:31:04,VALID,1002.05,VALID,0,VALID,84.4517,VALID,0,VALID,25.2027,VALID,342,VALID,0.425391,
2012-01-13, 03:32:04,VALID,1002.04,VALID,0,VALID,84.8179,VALID,0.0815089,VALID,25.1813,VALID,342,VALID,0.634375,
2012-01-13, 03:33:04,VALID,1002.05,VALID,0,VALID,84.9628,VALID,0,VALID,25.1618,VALID,358,VALID,1.03984,
2012-01-13, 03:34:04,VALID,1002.07,VALID,0,VALID,85.4129,VALID,0.0815089,VALID,25.1423,VALID,358,VALID,0.921875,
2012-01-13, 03:35:04,VALID,1002.1,VALID,0,VALID,85.329,VALID,0,VALID,25.0839,VALID,1,VALID,1.14727,
2012-01-13, 03:36:04,VALID,1002.08,VALID,0,VALID,85.7028,VALID,0,VALID,25.0644,VALID,352,VALID,0.874609,
2012-01-13, 03:37:04,VALID,1002.07,VALID,0,VALID,85.5808,VALID,0,VALID,25.0255,VALID,360,VALID,1.18398,
2012-01-13, 03:38:04,VALID,1002.1,VALID,0,VALID,85.6113,VALID,0,VALID,25.0274,VALID,357,VALID,1.15195,
2012-01-13, 03:39:04,VALID,1002.09,VALID,0,VALID,85.535,VALID,0,VALID,25.006,VALID,347,VALID,1.02891,